{"data":{"norad_id":62521,"epoch":"2026-09-21T12:27:57.301344Z","epoch_age_seconds":86243,"freshness":"FRESH","line1":"1 62521U 25004L   26264.51941321  .00117597  00000+0  90676-3 0  9993","line2":"2 62521  43.0008 330.6694 0001210 299.9327  60.1420 15.70847771 98006","mean_motion":15.70847771,"eccentricity":0.000121,"inclination_deg":43.0008,"raan_deg":330.6694,"arg_perigee_deg":299.9327,"mean_anomaly_deg":60.142,"bstar":0.00090676,"rev_number":9800,"period_min":91.670244983911,"perigee_km":355.65796289583,"apogee_km":357.28773847969,"semimajor_km":6734.6098506878,"source":"CELESTRAK","updated_at":"2026-09-22T09:00:49.623447Z"}}